Location: Colorado Springs
(38.8340°N, 104.8210°W)
Time: 13:16:31
(UTC-06:00)

Hubble Space Telescope - Pass Details

Date: 08 October 2017
Orbit: 537 x 541 km, 28.5° (Epoch: 22 October)

Event Time Altitude Azimuth Distance (km) Brightness Sun altitude
Exits shadow 05:02:33 17° 164° (SSE) 1,403 2.9 -24.0°
Drops below altitude 10° 05:04:21 10° 139° (SE) 1,788 3.8 -23.6°
Sets 05:07:08 0° 121° (ESE) 2,679 5.0 -23.1°
